Time,TemperatureF,DewpointF,PressureIn,WindDirection,WindDirectionDegrees,WindSpeedMPH,WindSpeedGustMPH,Humidity,HourlyPrecipIn,Conditions,Clouds,dailyrainin,SoftwareType,DateUTC
2013-09-05 00:01:00,57.4,55.0,30.10,WNW,287,0.0,0.0,92,0.00,,,0.00,weatherlink.com 1.10,2013-09-05 05:01:00,
2013-09-05 00:16:00,57.1,55.0,30.10,WNW,287,0.0,0.0,91,0.00,,,0.00,weatherlink.com 1.10,2013-09-05 05:16:00,
2013-09-05 00:31:00,56.8,55.0,30.10,WNW,287,0.0,0.0,92,0.00,,,0.00,weatherlink.com 1.10,2013-09-05 05:31:00,
2013-09-05 00:46:00,56.3,54.0,30.11,WNW,287,0.0,0.0,92,0.00,,,0.00,weatherlink.com 1.10,2013-09-05 05:46:00,
2013-09-05 01:01:00,55.9,54.0,30.11,WNW,287,0.0,0.0,92,0.00,,,0.00,weatherlink.com 1.10,2013-09-05 06:01:00,
2013-09-05 01:16:00,56.2,54.0,30.11,WNW,287,0.0,1.0,93,0.00,,,0.00,weatherlink.com 1.10,2013-09-05 06:16:00,
2013-09-05 01:31:00,57.0,55.0,30.11,WNW,287,0.0,2.0,94,0.00,,,0.00,weatherlink.com 1.10,2013-09-05 06:31:00,
2013-09-05 01:46:00,56.8,55.0,30.11,WNW,287,0.0,1.0,93,0.00,,,0.00,weatherlink.com 1.10,2013-09-05 06:46:00,
2013-09-05 02:01:00,56.4,55.0,30.11,WNW,287,0.0,1.0,93,0.00,,,0.00,weatherlink.com 1.10,2013-09-05 07:01:00,
2013-09-05 02:16:00,56.4,55.0,30.11,WNW,287,0.0,0.0,93,0.00,,,0.00,weatherlink.com 1.10,2013-09-05 07:16:00,
2013-09-05 02:31:00,56.3,54.0,30.11,WNW,287,0.0,0.0,93,0.00,,,0.00,weatherlink.com 1.10,2013-09-05 07:31:00,
2013-09-05 02:46:00,56.8,55.0,30.12,WNW,287,0.0,0.0,94,0.00,,,0.00,weatherlink.com 1.10,2013-09-05 07:46:00,
2013-09-05 03:01:00,57.1,55.0,30.12,WNW,287,0.0,0.0,94,0.00,,,0.00,weatherlink.com 1.10,2013-09-05 08:01:00,
2013-09-05 03:16:00,57.3,56.0,30.12,WNW,287,0.0,0.0,94,0.00,,,0.00,weatherlink.com 1.10,2013-09-05 08:16:00,
2013-09-05 03:31:00,57.5,56.0,30.12,WNW,287,0.0,0.0,94,0.00,,,0.00,weatherlink.com 1.10,2013-09-05 08:31:00,
2013-09-05 03:46:00,57.6,56.0,30.12,WNW,287,0.0,0.0,94,0.00,,,0.00,weatherlink.com 1.10,2013-09-05 08:46:00,
2013-09-05 04:01:00,57.7,56.0,30.12,WNW,287,0.0,0.0,94,0.00,,,0.00,weatherlink.com 1.10,2013-09-05 09:01:00,
2013-09-05 04:16:00,57.8,56.0,30.12,WNW,287,0.0,0.0,94,0.00,,,0.00,weatherlink.com 1.10,2013-09-05 09:16:00,
2013-09-05 04:31:00,58.1,56.0,30.12,WNW,287,0.0,0.0,94,0.00,,,0.00,weatherlink.com 1.10,2013-09-05 09:31:00,
2013-09-05 04:46:00,58.1,56.0,30.12,WNW,287,0.0,0.0,94,0.00,,,0.00,weatherlink.com 1.10,2013-09-05 09:46:00,
2013-09-05 05:01:00,58.6,57.0,30.13,WNW,287,0.0,0.0,94,0.00,,,0.00,weatherlink.com 1.10,2013-09-05 10:01:00,
2013-09-05 05:17:00,58.8,57.0,30.14,WNW,287,0.0,0.0,94,0.00,,,0.00,weatherlink.com 1.10,2013-09-05 10:17:00,
2013-09-05 05:32:00,58.4,57.0,30.14,WNW,287,0.0,0.0,94,0.00,,,0.00,weatherlink.com 1.10,2013-09-05 10:32:00,
2013-09-05 05:47:00,58.2,57.0,30.14,WNW,287,0.0,0.0,94,0.00,,,0.00,weatherlink.com 1.10,2013-09-05 10:47:00,
2013-09-05 06:02:00,58.3,57.0,30.14,WNW,287,0.0,0.0,94,0.00,,,0.00,weatherlink.com 1.10,2013-09-05 11:02:00,
2013-09-05 06:17:00,58.5,57.0,30.14,WNW,287,0.0,0.0,94,0.00,,,0.00,weatherlink.com 1.10,2013-09-05 11:17:00,
2013-09-05 06:32:00,58.7,57.0,30.15,WNW,287,0.0,0.0,94,0.00,,,0.00,weatherlink.com 1.10,2013-09-05 11:32:00,
2013-09-05 06:47:00,59.3,58.0,30.15,WNW,287,0.0,0.0,95,0.00,,,0.00,weatherlink.com 1.10,2013-09-05 11:47:00,
2013-09-05 07:02:00,60.0,59.0,30.16,WNW,287,0.0,0.0,95,0.00,,,0.00,weatherlink.com 1.10,2013-09-05 12:02:00,
2013-09-05 07:17:00,61.4,60.0,30.16,WNW,287,0.0,1.0,95,0.00,,,0.00,weatherlink.com 1.10,2013-09-05 12:17:00,
2013-09-05 07:32:00,62.0,61.0,30.16,ESE,113,0.0,0.0,95,0.00,,,0.00,weatherlink.com 1.10,2013-09-05 12:32:00,
2013-09-05 07:47:00,63.0,62.0,30.16,ESE,113,0.0,0.0,95,0.00,,,0.00,weatherlink.com 1.10,2013-09-05 12:47:00,
2013-09-05 08:02:00,63.5,62.0,30.16,NE,36,2.0,2.0,94,0.00,,,0.00,weatherlink.com 1.10,2013-09-05 13:02:00,
2013-09-05 08:17:00,64.6,62.0,30.16,NNE,30,0.0,2.0,91,0.00,,,0.00,weatherlink.com 1.10,2013-09-05 13:17:00,
2013-09-05 08:32:00,65.8,62.0,30.16,ENE,63,1.0,6.0,86,0.00,,,0.00,weatherlink.com 1.10,2013-09-05 13:32:00,
2013-09-05 08:47:00,66.8,62.0,30.16,East,79,1.0,5.0,85,0.00,,,0.00,weatherlink.com 1.10,2013-09-05 13:47:00,
2013-09-05 09:02:00,67.9,62.0,30.17,East,80,5.0,7.0,82,0.00,,,0.00,weatherlink.com 1.10,2013-09-05 14:02:00,
2013-09-05 09:17:00,69.4,62.0,30.17,ENE,64,3.0,9.0,77,0.00,,,0.00,weatherlink.com 1.10,2013-09-05 14:17:00,
2013-09-05 09:32:00,68.7,61.0,30.18,East,79,4.0,9.0,76,0.00,,,0.00,weatherlink.com 1.10,2013-09-05 14:32:00,
2013-09-05 09:47:00,68.3,60.0,30.18,NE,52,5.0,9.0,76,0.00,,,0.00,weatherlink.com 1.10,2013-09-05 14:47:00,
2013-09-05 10:02:00,68.7,61.0,30.19,East,84,5.0,8.0,77,0.00,,,0.00,weatherlink.com 1.10,2013-09-05 15:02:00,
2013-09-05 10:17:00,69.6,62.0,30.20,ENE,78,7.0,9.0,76,0.00,,,0.00,weatherlink.com 1.10,2013-09-05 15:17:00,
2013-09-05 10:32:00,70.3,62.0,30.20,ENE,63,5.0,10.0,75,0.00,,,0.00,weatherlink.com 1.10,2013-09-05 15:32:00,
2013-09-05 10:47:00,71.2,63.0,30.20,East,91,3.0,9.0,75,0.00,,,0.00,weatherlink.com 1.10,2013-09-05 15:47:00,
2013-09-05 11:02:00,72.1,63.0,30.20,East,86,3.0,9.0,73,0.00,,,0.00,weatherlink.com 1.10,2013-09-05 16:02:00,
2013-09-05 11:18:00,72.6,63.0,30.20,East,80,3.0,9.0,71,0.00,,,0.00,weatherlink.com 1.10,2013-09-05 16:18:00,
2013-09-05 11:33:00,71.8,62.0,30.20,East,93,6.0,9.0,71,0.00,,,0.00,weatherlink.com 1.10,2013-09-05 16:33:00,
2013-09-05 11:48:00,72.2,62.0,30.21,ENE,68,8.0,9.0,71,0.00,,,0.00,weatherlink.com 1.10,2013-09-05 16:48:00,
2013-09-05 12:03:00,72.7,62.0,30.20,East,94,4.0,10.0,69,0.00,,,0.00,weatherlink.com 1.10,2013-09-05 17:03:00,
2013-09-05 12:18:00,74.3,62.0,30.20,ENE,69,4.0,11.0,66,0.00,,,0.00,weatherlink.com 1.10,2013-09-05 17:18:00,
2013-09-05 12:33:00,76.2,63.0,30.20,ENE,66,8.0,9.0,63,0.00,,,0.00,weatherlink.com 1.10,2013-09-05 17:33:00,
2013-09-05 12:48:00,78.2,64.0,30.19,East,91,4.0,11.0,62,0.00,,,0.00,weatherlink.com 1.10,2013-09-05 17:48:00,
2013-09-05 13:03:00,77.6,62.0,30.20,ENE,74,4.0,9.0,59,0.00,,,0.00,weatherlink.com 1.10,2013-09-05 18:03:00,
2013-09-05 13:18:00,77.4,62.0,30.19,East,84,8.0,11.0,60,0.00,,,0.00,weatherlink.com 1.10,2013-09-05 18:18:00,
2013-09-05 13:33:00,77.6,62.0,30.19,NE,52,9.0,9.0,59,0.00,,,0.00,weatherlink.com 1.10,2013-09-05 18:33:00,
2013-09-05 13:48:00,77.9,62.0,30.19,ENE,71,3.0,9.0,59,0.00,,,0.00,weatherlink.com 1.10,2013-09-05 18:48:00,
2013-09-05 14:03:00,78.6,63.0,30.18,ESE,103,3.0,9.0,60,0.00,,,0.00,weatherlink.com 1.10,2013-09-05 19:03:00,
2013-09-05 14:18:00,79.4,62.0,30.18,ENE,67,1.0,8.0,55,0.00,,,0.00,weatherlink.com 1.10,2013-09-05 19:18:00,
2013-09-05 14:33:00,79.6,62.0,30.17,ENE,76,2.0,9.0,55,0.00,,,0.00,weatherlink.com 1.10,2013-09-05 19:33:00,
2013-09-05 14:48:00,80.2,62.0,30.17,NE,49,1.0,4.0,54,0.00,,,0.00,weatherlink.com 1.10,2013-09-05 19:48:00,
2013-09-05 15:03:00,80.3,64.0,30.17,ENE,61,2.0,4.0,57,0.00,,,0.00,weatherlink.com 1.10,2013-09-05 20:03:00,
2013-09-05 15:18:00,80.2,61.0,30.17,ENE,67,2.0,6.0,53,0.00,,,0.00,weatherlink.com 1.10,2013-09-05 20:18:00,
2013-09-05 15:33:00,80.4,60.0,30.16,East,93,7.0,9.0,50,0.00,,,0.00,weatherlink.com 1.10,2013-09-05 20:33:00,
2013-09-05 15:48:00,80.2,60.0,30.16,NE,42,3.0,8.0,51,0.00,,,0.00,weatherlink.com 1.10,2013-09-05 20:48:00,
2013-09-05 16:03:00,79.8,59.0,30.16,NE,47,1.0,9.0,50,0.00,,,0.00,weatherlink.com 1.10,2013-09-05 21:03:00,
2013-09-05 16:18:00,79.6,59.0,30.16,ENE,57,1.0,12.0,50,0.00,,,0.00,weatherlink.com 1.10,2013-09-05 21:18:00,
2013-09-05 16:33:00,79.3,58.0,30.16,NNE,18,5.0,10.0,49,0.00,,,0.00,weatherlink.com 1.10,2013-09-05 21:33:00,
2013-09-05 16:48:00,79.0,59.0,30.16,NE,45,1.0,9.0,50,0.00,,,0.00,weatherlink.com 1.10,2013-09-05 21:48:00,
2013-09-05 17:03:00,79.1,60.0,30.16,East,88,4.0,8.0,53,0.00,,,0.00,weatherlink.com 1.10,2013-09-05 22:03:00,
2013-09-05 17:18:00,78.5,59.0,30.16,ENE,76,3.0,10.0,52,0.00,,,0.00,weatherlink.com 1.10,2013-09-05 22:18:00,
2013-09-05 17:33:00,77.7,61.0,30.16,ENE,62,2.0,8.0,56,0.00,,,0.00,weatherlink.com 1.10,2013-09-05 22:33:00,
2013-09-05 17:48:00,76.9,60.0,30.16,ENE,61,3.0,5.0,57,0.00,,,0.00,weatherlink.com 1.10,2013-09-05 22:48:00,
2013-09-05 18:03:00,75.5,61.0,30.16,ENE,66,0.0,3.0,60,0.00,,,0.00,weatherlink.com 1.10,2013-09-05 23:03:00,
2013-09-05 18:18:00,74.2,61.0,30.16,East,80,2.0,4.0,63,0.00,,,0.00,weatherlink.com 1.10,2013-09-05 23:18:00,
2013-09-05 18:33:00,73.7,61.0,30.16,ENE,75,2.0,4.0,65,0.00,,,0.00,weatherlink.com 1.10,2013-09-05 23:33:00,
2013-09-05 18:48:00,72.6,60.0,30.16,East,98,0.0,3.0,64,0.00,,,0.00,weatherlink.com 1.10,2013-09-05 23:48:00,
2013-09-05 19:03:00,71.4,59.0,30.16,NE,46,0.0,4.0,64,0.00,,,0.00,weatherlink.com 1.10,2013-09-06 00:03:00,
2013-09-05 19:18:00,69.9,57.0,30.16,ENE,65,0.0,3.0,64,0.00,,,0.00,weatherlink.com 1.10,2013-09-06 00:18:00,
2013-09-05 19:33:00,68.4,57.0,30.16,East,99,2.0,2.0,66,0.00,,,0.00,weatherlink.com 1.10,2013-09-06 00:33:00,
2013-09-05 19:48:00,67.2,56.0,30.17,ENE,69,2.0,5.0,67,0.00,,,0.00,weatherlink.com 1.10,2013-09-06 00:48:00,
2013-09-05 20:03:00,66.3,54.0,30.17,NNE,26,1.0,4.0,64,0.00,,,0.00,weatherlink.com 1.10,2013-09-06 01:03:00,
2013-09-05 20:18:00,65.7,52.0,30.17,ENE,75,3.0,6.0,62,0.00,,,0.00,weatherlink.com 1.10,2013-09-06 01:18:00,
2013-09-05 20:33:00,65.0,52.0,30.18,NE,53,1.0,4.0,64,0.00,,,0.00,weatherlink.com 1.10,2013-09-06 01:33:00,
2013-09-05 20:48:00,64.3,52.0,30.18,ENE,68,2.0,9.0,64,0.00,,,0.00,weatherlink.com 1.10,2013-09-06 01:48:00,
2013-09-05 21:03:00,63.7,52.0,30.19,ENE,65,2.0,6.0,65,0.00,,,0.00,weatherlink.com 1.10,2013-09-06 02:03:00,
2013-09-05 21:18:00,63.1,51.0,30.19,NE,54,1.0,4.0,65,0.00,,,0.00,weatherlink.com 1.10,2013-09-06 02:18:00,
2013-09-05 21:33:00,62.5,51.0,30.19,NE,54,1.0,4.0,67,0.00,,,0.00,weatherlink.com 1.10,2013-09-06 02:33:00,
2013-09-05 21:48:00,61.7,52.0,30.19,ENE,63,3.0,4.0,71,0.00,,,0.00,weatherlink.com 1.10,2013-09-06 02:48:00,
2013-09-05 22:03:00,61.3,51.0,30.19,ENE,78,2.0,4.0,70,0.00,,,0.00,weatherlink.com 1.10,2013-09-06 03:03:00,
2013-09-05 22:18:00,60.9,52.0,30.19,NE,46,2.0,4.0,72,0.00,,,0.00,weatherlink.com 1.10,2013-09-06 03:18:00,
2013-09-05 22:33:00,60.4,52.0,30.19,ENE,63,1.0,4.0,73,0.00,,,0.00,weatherlink.com 1.10,2013-09-06 03:33:00,
2013-09-05 22:48:00,60.3,52.0,30.19,ENE,60,2.0,4.0,74,0.00,,,0.00,weatherlink.com 1.10,2013-09-06 03:48:00,
2013-09-05 23:03:00,59.8,52.0,30.20,ENE,67,0.0,3.0,75,0.00,,,0.00,weatherlink.com 1.10,2013-09-06 04:03:00,
2013-09-05 23:18:00,59.4,52.0,30.19,ENE,60,1.0,5.0,77,0.00,,,0.00,weatherlink.com 1.10,2013-09-06 04:18:00,
2013-09-05 23:33:00,59.3,52.0,30.19,ENE,71,3.0,4.0,77,0.00,,,0.00,weatherlink.com 1.10,2013-09-06 04:33:00,
2013-09-05 23:48:00,59.2,52.0,30.20,NE,40,2.0,3.0,78,0.00,,,0.00,weatherlink.com 1.10,2013-09-06 04:48:00,